Location: Unspecified
(50.7693°N, 0.0000°E)
Time: 01:48:56
(UTC+00:00)

A-11 Canister half - Pass Details

Date: 24 June 2019
Orbit: 1526 x 1683 km, 47.3° (Epoch: 16 August)

Event Time Altitude Azimuth Distance (km) Brightness Sun altitude
Rises 08:13:39 0° 277° (W) 4,703 11.1 38.5°
Reaches altitude 10° 08:16:44 10° 275° (W) 3,708 10.6 39.0°
Maximum altitude 08:25:53 64° 197° (SSW) 1,668 9.8 40.4°
Drops below altitude 10° 08:35:02 10° 119° (ESE) 3,708 12.1 41.8°
Sets 08:38:07 0° 117° (ESE) 4,702 12.4 42.3°
